TIANMU-1 22

Last updated on Sun Oct 06 2024 00:02:18 GMT+0000 (Coordinated Universal Time)

1 58663U 23208D 24279.59139482 .00023110 00000+0 11488-2 0 9998 2 58663 97.4172 29.4873 0004880 15.9230 344.2156 15.17636056 42903
UTC large
Height (km)
Speed (km/s)
/
Latitude / Longitude
Inclination (degrees)
Orbital Period (minutes)
Azimuth
Elevation
Range (km)
Doppler Factor

Next 0 passes for location: London (51.5072 / 0.1276)

Sorry there are no passes over London.